Погода в Золотухе

Россия / Астраханская область     47°48′22″N   46°43′24″E
темп.,
°C
ветер,
м/с
пор.,
м/с
влажн.,
%
обл.,
%
осадки,
мм/ч
давл.,
гПа
погр.,
м
17 апреля, сб
сб1701:00+14зсз4658100 0.1 101897
04:00+13сз41057100 0.1 1018180
07:00+12ссз3464100 0.0 101792
10:00+19з2242100 0.0 1018372
13:00+21зюз8736100 0.0 10191720
16:00+19зсз6649100 0.0 10191185
19:00+16з5765100 0.0 1020871
22:00+13зсз4670100 0.0 1021394
18 апреля, вс
вс1801:00+11сз4773100 0.0 1020254
04:00+10ссз228195 0.0 102146
07:00+10с11785 0.0 102167
10:00+14з115691 0.0 1020716
13:00+18зсз223813 0.0 10191873
16:00+19сз223294 0.0 10182283
19:00+18с343961 0.0 1018122
22:00+14ссв34485 0.0 101981
19 апреля, пн
пн1901:00+13св3354100 0.0 101981
04:00+13всв235487 0.0 101993
07:00+13в3456100 0.0 1018111
10:00+14вюв3553100 0.0 1018214
13:00+19юв343895 0.0 10181542
16:00+20ююз4440100 0.0 10161791
19:00+18юв3348100 0.0 101653
22:00+16ююв1175100 0.1 101619
20 апреля, вт
вт2001:00+15юв3779100 0.6 1016252
04:00+15юв3676100 0.8 1016176
07:00+15вюв5973100 0.1 1015383
10:00+17вюв71247100 0.1 1016815
13:00+21вюв101432100 0.0 10141530
16:00+21вюв121540100 0.1 10131425
19:00+17юв111762100 0.4 1015973
22:00+16вюв142249100 0.4 1014786
21 апреля, ср
ср2101:00+16юв61245100 0.0 1018945
04:00+14юв61255100 0.1 1019797
07:00+12юв91464100 0.3 1020660
10:00+10вюв91471100 1.2 1021579
13:00+9юв81489100 10.1 1022614
16:00+9юв61090100 15.2 1022506
19:00+9юв61093100 2.8 1023469
22:00+9вюв71292100 3.4 1024520